| time (UTC) | temp F | wind direction | speed MPH | gust MPH | rain 1hr in | rain 24hr in | rain mn in | humidity % | barometer mb |
| 20260905114554 | 72 | 0 | 0.0 | 0.0 | 0.00 | 0.00 | 0.00 | 86 | 1016.3 |
| 20260905113052 | 72 | 0 | 0.0 | 0.0 | 0.00 | 0.00 | 0.00 | 86 | 1016.3 |
| 20260905111635 | 72 | 0 | 0.0 | 0.0 | 0.00 | 0.00 | 0.00 | 85 | 1016.3 |
| 20260905110053 | 72 | 0 | 0.0 | 0.0 | 0.00 | 0.00 | 0.00 | 85 | 1016.2 |
| 20260905104600 | 73 | 0 | 0.0 | 0.0 | 0.00 | 0.00 | 0.00 | 85 | 1016.1 |
| 20260905103051 | 73 | 0 | 0.0 | 0.0 | 0.00 | 0.00 | 0.00 | 84 | 1016.2 |
| 20260905101554 | 73 | 0 | 0.0 | 0.0 | 0.00 | 0.00 | 0.00 | 84 | 1016.0 |
| 20260905094546 | 74 | 0 | 0.0 | 0.0 | 0.00 | 0.00 | 0.00 | 83 | 1016.2 |
| 20260905093050 | 74 | 0 | 0.0 | 0.0 | 0.00 | 0.00 | 0.00 | 81 | 1016.0 |
| 20260905091546 | 75 | 0 | 0.0 | 0.0 | 0.00 | 0.00 | 0.00 | 80 | 1016.0 |
| 20260905090055 | 75 | 0 | 0.0 | 1.0 | 0.00 | 0.00 | 0.00 | 80 | 1016.0 |
| 20260905084603 | 75 | 0 | 0.0 | 1.0 | 0.00 | 0.00 | 0.00 | 80 | 1015.6 |
| 20260905083050 | 75 | 0 | 0.0 | 2.0 | 0.00 | 0.00 | 0.00 | 82 | 1015.6 |
| 20260905081546 | 74 | 0 | 0.0 | 0.0 | 0.00 | 0.00 | 0.00 | 82 | 1015.5 |
| 20260905080051 | 74 | 0 | 0.0 | 0.0 | 0.00 | 0.00 | 0.00 | 81 | 1015.6 |
| 20260905074553 | 75 | 0 | 0.0 | 0.0 | 0.00 | 0.00 | 0.00 | 79 | 1015.6 |
| 20260905073053 | 76 | 0 | 0.0 | 0.0 | 0.00 | 0.00 | 0.00 | 78 | 1015.7 |
| 20260905071546 | 76 | 0 | 0.0 | 0.0 | 0.00 | 0.00 | 0.00 | 78 | 1015.6 |
| 20260905070057 | 77 | 0 | 0.0 | 0.0 | 0.00 | 0.00 | 0.00 | 76 | 1015.7 |
| 20260905064552 | 78 | 0 | 0.0 | 0.0 | 0.00 | 0.00 | 0.00 | 74 | 1015.9 |
| 20260905063048 | 79 | 0 | 0.0 | 1.0 | 0.00 | 0.00 | 0.00 | 71 | 1016.0 |
| 20260905061559 | 80 | 0 | 0.0 | 1.0 | 0.00 | 0.00 | 0.00 | 70 | 1016.2 |
| 20260905060058 | 81 | 131 | 0.0 | 1.0 | 0.00 | 0.00 | 0.00 | 69 | 1016.2 |
| 20260905054554 | 81 | 158 | 0.0 | 1.0 | 0.00 | 0.00 | 0.00 | 69 | 1015.9 |
| 20260905053047 | 81 | 119 | 0.0 | 2.0 | 0.00 | 0.00 | 0.00 | 67 | 1016.0 |
| 20260905051551 | 82 | 125 | 0.0 | 2.0 | 0.00 | 0.00 | 0.00 | 66 | 1016.0 |
| 20260905050059 | 82 | 129 | 0.0 | 2.0 | 0.00 | 0.00 | 0.00 | 66 | 1016.0 |
| 20260905044555 | 81 | 0 | 0.0 | 1.0 | 0.00 | 0.00 | 0.00 | 66 | 1016.0 |
| 20260905043056 | 81 | 124 | 0.0 | 1.0 | 0.00 | 0.00 | 0.00 | 66 | 1015.9 |
| 20260905041546 | 81 | 0 | 0.0 | 1.0 | 0.00 | 0.00 | 0.00 | 67 | 1016.0 |
| 20260905040104 | 80 | 0 | 0.0 | 0.0 | 0.00 | 0.00 | 0.00 | 69 | 1015.8 |
| 20260905034605 | 80 | 0 | 0.0 | 0.0 | 0.00 | 0.00 | 0.00 | 69 | 1015.9 |
| 20260905033115 | 79 | 0 | 0.0 | 0.0 | 0.00 | 0.00 | 0.00 | 70 | 1016.0 |
| 20260905031557 | 79 | 0 | 0.0 | 1.0 | 0.00 | 0.00 | 0.00 | 70 | 1015.9 |
| 20260905030059 | 80 | 105 | 0.0 | 1.0 | 0.00 | 0.00 | 0.00 | 71 | 1015.7 |
| 20260905024604 | 80 | 105 | 0.0 | 1.0 | 0.00 | 0.00 | 0.00 | 72 | 1015.5 |
| 20260905023055 | 80 | 0 | 0.0 | 0.0 | 0.00 | 0.00 | 0.00 | 70 | 1015.2 |
| 20260905021547 | 80 | 0 | 0.0 | 2.0 | 0.00 | 0.00 | 0.00 | 70 | 1014.9 |
| 20260905020055 | 81 | 0 | 0.0 | 0.0 | 0.00 | 0.00 | 0.00 | 70 | 1014.6 |
| 20260905014554 | 82 | 0 | 0.0 | 0.0 | 0.00 | 0.00 | 0.00 | 68 | 1014.4 |
| 20260905013049 | 83 | 0 | 0.0 | 1.0 | 0.00 | 0.00 | 0.00 | 66 | 1014.3 |
| 20260905011600 | 85 | 0 | 0.0 | 1.0 | 0.00 | 0.00 | 0.00 | 62 | 1014.2 |
| 20260905010107 | 87 | 0 | 0.0 | 0.0 | 0.00 | 0.00 | 0.00 | 59 | 1014.1 |
| 20260905004610 | 89 | 0 | 0.0 | 0.0 | 0.00 | 0.00 | 0.00 | 55 | 1014.1 |
| 20260905003051 | 92 | 0 | 0.0 | 0.0 | 0.00 | 0.00 | 0.00 | 51 | 1013.9 |
| 20260905001555 | 94 | 0 | 0.0 | 1.0 | 0.00 | 0.00 | 0.00 | 47 | 1014.0 |
| 20260905000118 | 95 | 130 | 0.0 | 1.0 | 0.00 | 0.00 | 0.00 | 45 | 1014.0 |
| 20260904234556 | 96 | 0 | 0.0 | 2.0 | 0.00 | 0.00 | 0.00 | 44 | 1014.0 |
| 20260904233050 | 96 | 0 | 2.0 | 4.0 | 0.00 | 0.00 | 0.00 | 44 | 1013.9 |
| 20260904231548 | 97 | 219 | 1.0 | 4.0 | 0.00 | 0.00 | 0.00 | 42 | 1014.0 |
| 20260904230105 | 99 | 255 | 3.0 | 9.0 | 0.00 | 0.00 | 0.00 | 41 | 1014.0 |
| 20260904224545 | 99 | 237 | 4.0 | 10.0 | 0.00 | 0.00 | 0.00 | 40 | 1014.1 |
| 20260904223053 | 99 | 173 | 4.0 | 7.0 | 0.00 | 0.00 | 0.00 | 40 | 1014.1 |
| 20260904221557 | 99 | 229 | 1.0 | 9.0 | 0.00 | 0.00 | 0.00 | 40 | 1014.2 |
| 20260904220058 | 100 | 227 | 3.0 | 7.0 | 0.00 | 0.00 | 0.00 | 40 | 1014.2 |
| 20260904214552 | 100 | 205 | 3.0 | 9.0 | 0.00 | 0.00 | 0.00 | 39 | 1014.3 |
| 20260904213050 | 100 | 126 | 2.0 | 8.0 | 0.00 | 0.00 | 0.00 | 39 | 1014.4 |
| 20260904211547 | 99 | 110 | 4.0 | 9.0 | 0.00 | 0.00 | 0.00 | 41 | 1014.6 |
| 20260904210044 | 100 | 132 | 4.0 | 10.0 | 0.00 | 0.00 | 0.00 | 40 | 1014.7 |
| 20260904204558 | 99 | 199 | 2.0 | 7.0 | 0.00 | 0.00 | 0.00 | 43 | 1014.8 |
| 20260904203050 | 99 | 106 | 4.0 | 12.0 | 0.00 | 0.00 | 0.00 | 43 | 1014.9 |
| 20260904201547 | 99 | 168 | 4.0 | 8.0 | 0.00 | 0.00 | 0.00 | 43 | 1015.2 |
| 20260904200100 | 99 | 129 | 3.0 | 9.0 | 0.00 | 0.00 | 0.00 | 44 | 1015.4 |
| 20260904194555 | 98 | 235 | 3.0 | 8.0 | 0.00 | 0.00 | 0.00 | 44 | 1015.6 |
| 20260904193049 | 97 | 295 | 4.0 | 11.0 | 0.00 | 0.00 | 0.00 | 46 | 1015.6 |
| 20260904191547 | 97 | 151 | 4.0 | 14.0 | 0.00 | 0.00 | 0.00 | 46 | 1015.9 |
| 20260904190059 | 97 | 145 | 3.0 | 9.0 | 0.00 | 0.00 | 0.00 | 45 | 1016.2 |
| 20260904184554 | 98 | 154 | 2.0 | 8.0 | 0.00 | 0.00 | 0.00 | 47 | 1016.4 |
| 20260904183116 | 95 | 139 | 5.0 | 11.0 | 0.00 | 0.00 | 0.00 | 49 | 1016.5 |
| 20260904181557 | 96 | 307 | 3.0 | 8.0 | 0.00 | 0.00 | 0.00 | 49 | 1016.6 |
| 20260904180100 | 96 | 179 | 2.0 | 8.0 | 0.00 | 0.00 | 0.00 | 49 | 1016.7 |
| 20260904174556 | 94 | 264 | 3.0 | 12.0 | 0.00 | 0.00 | 0.00 | 49 | 1017.2 |
| 20260904173103 | 94 | 176 | 5.0 | 10.0 | 0.00 | 0.00 | 0.00 | 52 | 1017.4 |
| 20260904171613 | 93 | 201 | 5.0 | 11.0 | 0.00 | 0.00 | 0.00 | 53 | 1017.5 |
| 20260904170058 | 94 | 237 | 3.0 | 9.0 | 0.00 | 0.00 | 0.00 | 54 | 1017.5 |
| 20260904164610 | 93 | 193 | 3.0 | 11.0 | 0.00 | 0.00 | 0.00 | 55 | 1017.7 |
| 20260904163050 | 92 | 212 | 3.0 | 8.0 | 0.00 | 0.00 | 0.00 | 56 | 1017.8 |
| 20260904161600 | 91 | 212 | 3.0 | 8.0 | 0.00 | 0.00 | 0.00 | 59 | 1017.8 |
| 20260904160110 | 90 | 269 | 3.0 | 7.0 | 0.00 | 0.00 | 0.00 | 60 | 1017.9 |
| 20260904154554 | 90 | 160 | 1.0 | 8.0 | 0.00 | 0.00 | 0.00 | 63 | 1018.1 |
| 20260904153111 | 89 | 247 | 4.0 | 6.0 | 0.00 | 0.00 | 0.00 | 63 | 1018.1 |
| 20260904151558 | 88 | 228 | 2.0 | 5.0 | 0.00 | 0.00 | 0.00 | 64 | 1018.1 |
| 20260904144603 | 86 | 125 | 2.0 | 9.0 | 0.00 | 0.00 | 0.00 | 67 | 1017.8 |
| 20260904143059 | 87 | 264 | 2.0 | 4.0 | 0.00 | 0.00 | 0.00 | 66 | 1018.0 |
| 20260904141557 | 85 | 185 | 1.0 | 4.0 | 0.00 | 0.00 | 0.00 | 69 | 1018.0 |
| 20260904140056 | 84 | 174 | 1.0 | 5.0 | 0.00 | 0.00 | 0.00 | 69 | 1017.9 |
| 20260904134558 | 83 | 235 | 1.0 | 4.0 | 0.00 | 0.00 | 0.00 | 71 | 1017.9 |
| 20260904133100 | 81 | 198 | 0.0 | 3.0 | 0.00 | 0.00 | 0.00 | 75 | 1018.0 |
| 20260904131602 | 79 | 276 | 0.0 | 3.0 | 0.00 | 0.00 | 0.00 | 77 | 1017.9 |
| 20260904130054 | 76 | 0 | 0.0 | 1.0 | 0.00 | 0.00 | 0.00 | 82 | 1017.8 |
| 20260904124554 | 74 | 129 | 1.0 | 3.0 | 0.00 | 0.00 | 0.00 | 84 | 1017.7 |
| 20260904123055 | 73 | 0 | 0.0 | 2.0 | 0.00 | 0.00 | 0.00 | 86 | 1017.5 |
| 20260904121600 | 72 | 146 | 0.0 | 1.0 | 0.00 | 0.00 | 0.00 | 87 | 1017.7 |
| 20260904120100 | 71 | 0 | 0.0 | 0.0 | 0.00 | 0.00 | 0.00 | 88 | 1017.5 |